Regional Weather Roundup
Issued by NWS

Home | Current Version | Previous Version | Text Only | Print | Product List | Glossary Off
Versions: 1 2 3 4 5 6 7 8 9 10 11 12 13 14 15 16 17 18 19 20 21 22 23 24 25 26 27 28 29 30 31 32 33 34 35 36 37 38 39 40 41 42 43 44 45 46 47 48 49 50

342
ASUS43 KIND 191509
RWRIN

WEATHER ROUNDUP FOR INDIANA
NATIONAL WEATHER SERVICE INDIANAPOLIS IN
1000 AM EST THU JAN 19 2017

NOTE: "FAIR" INDICATES FEW OR NO CLOUDS BELOW 12,000 FEET WITH NO
SIGNIFICANT WEATHER AND/OR OBSTRUCTIONS TO VISIBILITY.

* - STATION DOES NOT REPORT WEATHER SUCH AS PRECIPITATION OR FOG.

+ - STATION NOT QUALITY CONTROLLED BY THE NATIONAL WEATHER SERVICE.
    USE DATA WITH CAUTION...ESPECIALLY DEWPOINT AND RELATIVE
    HUMIDITY OBSERVATIONS.

INZ001>003-010>013-019-020-191600-
NORTHWEST INDIANA

CITY           SKY/WX    TMP DP  RH WIND       PRES   REMARKS
GARY /AIRPORT/ CLOUDY    37  36  93 SE7       30.02F FOG
KNOX *+        CLOUDY    34  28  80 SE8       30.03S WCI  27
LA PORTE +     FOG       34  34 100 SE6       30.03S VSB 1/2 WCI  29
MICHIGAN CITY+ CLOUDY    36  36 100 S5        30.03F FOG
MONTICELLO +   CLOUDY    35  34  95 SE3       30.01F FOG
RENSSELAER +   CLOUDY    36  36 100 E7        30.01F FOG
VALPARAISO     FOG       36  36 100 SE6       30.03S VSB 1/2

$$

LMZ046-743>745-191600-
SOUTHERN LAKE MICHIGAN

STATION/POSITION TIME  TEMP    WIND        PRES    WAVE
                       AIR SEA DIR/SP/G            HT
                 (UTC) (F)     (DEG/KT/KT) (MB)    (FT)
BURNS HARBOR     1440   36     170/  9/ 12 1017.3S

$$

INZ004-005-014>016-021>024-191600-
NORTH CENTRAL INDIANA

CITY           SKY/WX    TMP DP  RH WIND       PRES   REMARKS
ELKHART        CLOUDY    36  32  87 SW6       30.04S FOG
GOSHEN         CLOUDY    35  32  88 S9        30.04S FOG     WCI  28
LOGANSPORT +   CLOUDY    36  34  93 E7        30.04S FOG
PERU/GRISSOM   FOG       35  35 100 SE8       30.02F VSB 1   WCI  28
ROCHESTER +    FOG       36  36 100 SE6       30.04F VSB 1/2
SOUTH BEND     CLOUDY    34  34 100 SE8       30.04S FOG     WCI  27
WARSAW +       CLOUDY    34  30  86 SE7       30.04F FOG     WCI  28

$$

INZ006>009-017-018-025>027-191600-
NORTHEAST INDIANA

CITY           SKY/WX    TMP DP  RH WIND       PRES   REMARKS
ANGOLA *+      CLOUDY    32  32 100 S6        30.05R WCI  26
AUBURN +       CLOUDY    34  32  93 S3        30.08R FOG
FORT WAYNE     CLOUDY    36  33  89 S6        30.07R FOG
HUNTINGTON +   CLOUDY    35  34  96 E7        30.05F FOG     WCI  29
KENDALLVILLE + CLOUDY    33  33 100 S6        30.06R FOG     WCI  27

$$

INZ028-029-035-036-043>045-051>053-191600-
WEST CENTRAL INDIANA

CITY           SKY/WX    TMP DP  RH WIND       PRES   REMARKS
CRAWFORDSVL +  CLOUDY    36  36 100 E9        30.00F FOG
GREENCASTLE +  CLOUDY    37  36  93 SE8       30.02F FOG
LAFAYETTE      PTSUNNY   37  35  92 SE7       30.01F FOG
TERRE HAUTE    CLOUDY    39  35  86 E10       29.99F

$$

INZ030>032-037>040-046>048-054>057-064-065-191600-
CENTRAL INDIANA

CITY           SKY/WX    TMP DP  RH WIND       PRES   REMARKS
ANDERSON       FOG       36  36 100 SE6       30.05F VSB 3/4
CP ATTERBURY + MOSUNNY   41  37  87 SE6       30.05F
COLUMBUS       SUNNY     39  39 100 SE7       30.05F
FISHERS *+     CLOUDY    36  36 100 CALM      30.04
FRANKFORT +    CLOUDY    39  37  94 SE9       30.04F FOG
GREENWOOD *+   PTSUNNY   39  38  97 SE8       30.04F
INDIANAPOLIS   PTSUNNY   39  36  89 SE9       30.03F FOG
-EAGLE CREEK   CLOUDY    39  35  86 SE9       30.02F
KOKOMO +       CLOUDY    35  35 100 SE7       30.04S FOG     WCI  29
MARION +       CLOUDY    34  34 100 SE7       30.04F FOG     WCI  28
MT COMFORT *+  CLOUDY    37  36  93 SE7       30.04S
SHELBYVILLE    CLOUDY    40  36  86 E7        30.03F FOG
ZIONSVILLE +   CLOUDY    35  35  98 SE8       30.04F FOG     WCI  29

$$

INZ033-034-041-042-049-050-058-059-191600-
EAST CENTRAL INDIANA

CITY           SKY/WX    TMP DP  RH WIND       PRES   REMARKS
MUNCIE         CLOUDY    37  34  89 SE7       30.04F FOG

$$

INZ060-061-067>069-081>083-085>088-191600-
SOUTHWEST INDIANA

CITY           SKY/WX    TMP DP  RH WIND       PRES   REMARKS
EVANSVILLE     CLOUDY    46  38  73 E7        29.97F
HUNTINGBURG *+ CLOUDY    45  39  81 SE8       29.99F
WASHINGTON +   MOSUNNY   42  38  85 E8        30.00S

$$

INZ062-063-066-070>080-084-089>092-191600-
SOUTH CENTRAL AND SOUTHEAST INDIANA

CITY           SKY/WX    TMP DP  RH WIND       PRES   REMARKS
BLOOMINGTON    MOSUNNY   42  37  82 SE8       30.00F
MADISON *+     CLOUDY    39  36  87 E8        30.06S
NORTH VERNON + MOSUNNY  N/A N/A N/A E5        30.05F
SEYMOUR +      MOSUNNY   43  39  87 E5        30.04F

$$





USA.gov is the U.S. government's official web portal to all federal, state and local government web resources and services.